Starlink 1585

operational
NORAD ID: 46117 Int'l Des: 2020-057 Owner: SPXS Country: US Constellation: starlink
LEOCIRCULARSTARLINK_TYPE

About Starlink 1585

Description loading...

Live Position

Loading 3D Globe...

Upcoming Passes

Altitude History

Altitude vs Time

uPlot chart will show altitude changes over time

Two-Line Element Set

1 46117U 20057A 25306.46735779 .00017720 00000-0 44390-3 0 9997
2 46117 53.0542 144.6273 0001376 112.0846 248.0304 15.40167077287215
Epoch: Nov 2, 2025 • Age: 6 hours

Current Status

Altitude 462.6 km
Velocity 7.63 km/s
Sub-Earth Point -47.74°S, 82.28°E
Launch Date Aug 18, 2020
Age 5.2 years
Type internet

Technical Details

Classification Payload
Mass 260.00 kg
Dry Mass 248.00 kg
Total Mass 260.00 kg
Length 0.20 m
Diameter 2.80 m
Span 9.00 m
Shape Box + pan
Manufacturer SPXS
Bus Type Starlink
Phase Status In Orbit
Owner/State SPXS/US

Large Constellations

Loading constellations...